Wind_Speed
27 27 24 22 21 22 24 21 15 14 14 13 11 11 11 12 12 13 14 15 15 15 14 14 13 13 13 12 12 12 12 12 12 12 12 11 11 11 10 11 11 12
28 29 28 27 25 24 25 24 19 15 14 12 11 11 11 11 11 12 12 13 14 14 13 13 13 13 13 13 13 12 12 12 12 12 12 12 11 10 9 9 9 9
26 29 29 29 27 24 25 24 21 16 14 13 12 11 11 11 11 11 11 11 12 12 12 12 12 12 12 12 12 12 12 12 13 13 13 13 12 11 10 9 8 8
23 22 22 23 23 23 23 22 21 18 15 15 14 12 11 11 12 12 12 12 12 12 12 12 12 12 12 11 11 11 12 12 12 13 13 13 13 12 11 10 9 8
16 13 11 13 14 18 20 19 19 19 17 15 15 14 13 13 13 14 14 13 13 13 13 13 13 13 13 13 13 13 13 13 14 14 14 14 14 13 12 11 10 9
16 15 13 12 10 11 13 15 17 20 19 15 14 14 14 14 15 15 15 15 15 15 15 15 15 15 15 15 15 14 14 15 15 15 15 15 15 14 13 12 11 11
15 15 12 10 8 8 10 13 17 20 21 18 16 15 15 15 16 17 17 17 16 16 16 16 16 16 15 15 14 14 14 14 13 14 14 14 14 13 13 12 11 11
14 13 10 8 5 7 11 15 17 20 21 21 20 19 17 17 17 17 17 17 17 17 17 17 17 17 16 15 15 14 14 13 12 12 12 13 13 12 11 10 10 10
12 12 11 10 9 10 13 16 18 19 19 21 22 20 18 18 17 17 18 18 18 18 18 19 19 19 18 17 16 16 15 14 12 12 11 12 12 11 10 9 10 12
13 11 12 14 14 13 14 17 19 18 17 19 20 19 18 19 18 17 18 19 19 18 19 20 21 20 19 19 18 17 17 16 15 14 13 13 13 12 12 12 13 14
15 14 14 16 15 14 16 19 20 19 18 19 20 20 20 20 20 19 19 21 21 20 20 21 22 21 20 20 19 19 18 18 17 17 16 16 15 16 16 16 16 16
17 16 15 15 15 15 17 19 20 20 20 20 20 22 22 21 21 20 22 23 23 21 22 24 24 23 22 22 23 23 21 21 20 20 20 20 19 19 20 19 18 17
17 17 17 16 17 17 17 19 21 20 20 21 23 23 23 22 21 22 24 26 25 24 24 26 25 25 25 25 25 24 24 24 24 23 23 23 23 23 23 22 21 19
21 20 21 22 22 20 17 18 20 19 19 21 22 22 22 22 21 23 24 26 28 28 27 27 29 29 30 29 29 28 27 26 24 23 23 23 24 24 24 24 24 23
25 23 22 22 22 20 18 17 19 20 20 21 21 21 21 22 23 25 27 29 30 30 30 31 33 32 30 30 29 29 28 26 24 24 23 24 25 26 27 28 28 27
27 25 22 20 19 20 20 19 21 23 23 23 23 23 21 22 24 29 32 31 29 30 33 36 34 28 24 23 23 23 23 23 24 25 25 26 27 28 30 31 31 31
29 28 26 25 24 26 27 26 27 29 29 28 29 28 26 26 27 30 32 31 31 32 32 33 31 25 22 22 22 23 23 24 25 26 27 29 30 31 33 34 35 36
34 33 32 31 29 28 30 31 32 33 33 32 33 33 31 30 31 33 34 34 35 36 34 33 33 32 31 29 28 28 28 27 27 28 29 31 32 34 35 37 38 39
38 36 35 35 32 28 29 31 33 33 33 34 34 33 32 31 32 35 37 37 38 38 39 40 40 40 39 37 34 32 31 30 30 31 32 33 34 35 37 38 40 41
39 38 36 36 36 34 33 34 34 34 33 34 33 32 33 33 34 35 37 39 40 41 41 41 40 39 39 38 36 34 33 33 33 33 34 35 36 37 38 39 40 40
41 40 39 39 39 38 37 37 38 38 38 38 36 35 35 35 34 34 36 37 38 39 39 40 39 38 36 35 35 35 36 36 36 36 37 37 37 37 38 38 39 39
44 43 42 42 41 40 40 40 41 42 43 42 41 39 38 37 36 36 37 37 37 38 38 40 40 39 37 36 36 37 38 39 40 40 40 39 38 38 38 38 39 40
44 43 43 42 42 42 41 41 42 42 43 44 43 42 42 41 40 40 39 39 39 39 39 41 42 41 41 40 40 41 41 41 41 41 41 41 40 39 39 40 40 41
43 42 41 42 42 41 40 41 42 43 44 44 44 45 45 45 44 43 43 43 42 42 42 43 44 44 44 44 44 43 42 41 40 41 41 41 41 41 42 42 43 43
42 41 40 40 41 40 40 40 41 42 44 45 45 46 47 48 47 46 45 45 44 44 44 45 45 46 46 46 45 43 42 41 41 41 42 43 44 45 46 46 46 46
44 43 42 42 42 41 41 41 41 42 44 44 45 48 49 50 49 48 47 46 45 44 44 44 45 45 45 45 44 43 42 42 42 43 43 45 46 47 48 48 48 47
Wind_Direction
266 269 274 273 263 260 269 270 261 263 268 264 260 257 254 254 253 253 254 253 250 246 242 241 241 241 241 241 241 241 240 238 238 241 244 248 254 260 265 270 274 279
269 269 268 269 266 259 259 259 253 253 259 258 255 253 250 252 254 254 256 257 255 251 247 245 246 245 245 244 242 240 239 238 239 241 243 246 249 254 260 267 274 281
282 274 264 264 266 258 250 250 248 246 247 249 249 247 246 248 251 253 254 255 255 253 251 249 249 249 250 251 251 249 247 245 245 245 247 249 251 254 258 262 271 280
291 277 258 259 260 247 241 245 250 252 251 245 242 242 245 247 248 251 252 253 253 252 251 250 249 248 249 252 255 258 259 259 258 257 256 255 256 257 259 261 263 268
294 282 263 268 259 237 236 247 256 260 258 246 239 240 244 248 249 250 252 253 253 252 251 251 250 249 249 250 252 254 257 259 261 262 263 262 262 263 263 266 268 269
295 289 282 286 276 251 249 258 262 263 261 253 246 246 248 250 251 251 252 253 254 256 256 255 253 251 251 252 254 255 256 256 257 258 259 260 261 263 263 266 269 272
285 279 284 295 290 280 270 261 258 260 264 264 263 263 260 256 254 253 254 255 256 258 257 255 254 252 252 253 255 256 255 256 256 256 257 258 259 259 260 261 265 269
278 269 289 309 289 271 263 254 253 260 268 271 271 270 268 263 258 257 259 260 261 262 260 258 256 254 253 253 252 251 249 249 252 257 262 263 262 260 258 261 270 277
284 274 280 285 277 272 263 257 256 257 263 268 270 269 266 263 261 261 263 264 264 265 266 268 266 261 257 254 250 248 245 244 250 260 266 266 264 262 263 271 283 289
285 279 272 276 282 277 265 263 261 255 255 260 264 266 265 263 263 264 265 266 265 263 265 267 269 267 264 260 255 249 246 246 251 259 264 263 261 261 266 275 285 291
277 275 271 273 277 271 264 264 262 258 256 254 256 260 262 262 262 261 261 263 262 260 257 255 258 261 262 261 258 254 251 251 254 258 261 262 262 262 266 272 280 287
274 270 267 268 273 273 269 267 264 260 256 254 255 258 258 259 260 261 261 261 261 260 254 250 251 253 255 257 258 257 256 256 258 261 263 264 263 263 265 269 274 278
274 269 266 269 277 279 269 262 260 256 252 252 255 258 261 262 263 264 265 263 264 263 256 250 250 251 250 253 255 256 259 261 261 262 265 266 266 266 268 271 274 273
278 276 274 276 280 277 265 252 246 246 251 252 252 256 261 263 263 265 266 264 264 265 260 255 255 254 252 252 253 257 261 263 260 261 265 268 269 272 275 278 279 277
279 279 278 280 277 269 262 257 249 249 255 255 253 256 259 263 267 267 266 263 260 259 257 254 254 253 251 249 250 254 258 257 256 260 267 272 274 277 279 281 282 280
279 277 274 274 272 266 265 264 258 254 254 251 252 255 257 262 265 264 263 261 256 251 246 243 243 243 242 240 242 246 250 252 256 262 268 273 276 278 280 282 282 281
275 274 270 267 267 269 270 266 261 259 256 253 256 259 259 258 260 262 264 262 260 257 251 246 245 248 252 252 251 251 253 257 262 266 270 273 276 277 279 280 280 280
269 270 269 267 265 268 270 265 260 259 258 257 259 261 261 260 261 264 266 264 263 264 264 262 263 266 269 269 264 260 260 264 269 272 274 275 276 276 277 277 277 276
265 265 264 263 262 263 263 260 256 257 259 259 259 261 262 263 262 263 265 266 266 267 269 272 273 274 276 275 272 268 267 270 274 276 276 276 275 275 275 275 275 275
260 260 259 258 258 258 258 256 254 256 259 260 260 261 262 264 265 265 264 265 267 269 272 275 276 275 274 274 274 272 271 271 273 274 276 277 277 278 278 279 279 280
256 257 256 256 257 258 258 257 255 256 259 261 261 261 260 262 266 267 266 266 267 270 272 274 274 274 272 271 271 271 271 271 272 273 275 278 281 284 285 286 286 285
257 257 257 258 259 260 260 258 256 256 258 260 261 261 260 262 265 267 268 268 268 269 270 270 270 270 270 270 270 273 274 275 275 276 277 279 283 287 290 291 291 289
261 260 259 259 260 261 261 261 259 257 257 259 261 260 260 264 267 268 268 268 267 267 268 267 267 267 268 269 273 278 280 280 280 279 279 280 283 287 292 294 294 292
260 259 258 257 256 256 256 258 259 259 259 259 261 261 263 267 270 271 270 268 266 266 266 265 265 266 267 270 275 280 281 282 283 282 281 281 283 288 292 295 295 294
257 255 254 253 253 253 253 254 256 258 259 260 261 262 265 269 271 271 268 266 265 265 265 265 265 267 269 272 277 279 280 281 282 283 283 284 286 289 292 294 295 295
255 253 252 253 253 253 254 255 255 257 259 261 262 265 267 269 269 268 266 265 266 268 268 268 269 270 272 274 275 276 277 278 279 281 283 285 287 289 291 293 294 294
Height
5748 5748 5750 5750 5750 5750 5748 5748 5750 5750 5750 5750 5750 5750 5750 5750 5751 5751 5751 5751 5751 5751 5751 5751 5751 5752 5752 5753 5753 5754 5754 5754 5754 5755 5755 5755 5755 5755 5755 5755 5756 5756
5745 5746 5746 5746 5747 5747 5746 5746 5747 5748 5748 5748 5748 5748 5748 5748 5748 5748 5748 5749 5749 5749 5749 5750 5750 5750 5750 5751 5751 5752 5752 5752 5752 5753 5753 5753 5753 5753 5754 5754 5754 5754
5742 5741 5741 5741 5743 5744 5743 5744 5745 5745 5745 5746 5746 5745 5745 5745 5745 5746 5746 5747 5747 5747 5748 5748 5748 5748 5749 5749 5750 5750 5750 5751 5751 5751 5751 5752 5752 5752 5752 5752 5752 5752
5738 5736 5736 5737 5739 5740 5740 5741 5742 5742 5743 5743 5743 5743 5743 5743 5743 5744 5744 5745 5745 5745 5746 5746 5746 5747 5747 5747 5748 5748 5748 5749 5749 5750 5750 5750 5750 5750 5750 5750 5750 5750
5735 5734 5734 5735 5736 5737 5738 5738 5739 5739 5740 5741 5741 5741 5741 5741 5741 5741 5742 5743 5743 5743 5744 5744 5744 5744 5745 5745 5745 5746 5746 5746 5747 5747 5748 5748 5748 5749 5749 5749 5749 5749
5734 5733 5732 5733 5733 5735 5736 5737 5737 5737 5737 5738 5738 5739 5739 5739 5739 5739 5739 5740 5740 5741 5741 5741 5742 5742 5742 5743 5743 5743 5744 5744 5744 5745 5745 5746 5746 5746 5747 5747 5747 5747
5732 5730 5729 5730 5731 5733 5734 5735 5735 5735 5735 5735 5736 5736 5736 5736 5736 5736 5736 5737 5737 5738 5738 5739 5739 5739 5740 5740 5740 5741 5741 5742 5742 5742 5743 5743 5744 5744 5744 5745 5745 5745
5730 5729 5729 5729 5730 5730 5731 5732 5733 5734 5733 5733 5733 5733 5733 5734 5734 5734 5734 5734 5735 5735 5736 5736 5737 5737 5737 5738 5738 5738 5739 5739 5740 5740 5741 5741 5741 5742 5742 5742 5743 5743
5727 5728 5728 5728 5727 5727 5728 5729 5730 5731 5731 5731 5730 5730 5731 5731 5731 5732 5732 5732 5733 5733 5734 5735 5735 5735 5735 5735 5735 5736 5736 5737 5738 5738 5739 5739 5739 5739 5740 5740 5740 5740
5724 5725 5725 5725 5725 5725 5726 5726 5727 5727 5728 5728 5728 5728 5728 5729 5729 5730 5730 5730 5731 5731 5732 5733 5733 5733 5733 5733 5733 5733 5734 5734 5735 5735 5736 5736 5737 5737 5737 5738 5738 5738
5721 5722 5722 5722 5722 5723 5724 5724 5724 5725 5725 5725 5725 5725 5725 5725 5726 5727 5727 5727 5728 5729 5729 5729 5730 5731 5731 5731 5731 5731 5731 5731 5731 5732 5732 5733 5734 5734 5735 5735 5735 5735
5719 5719 5720 5720 5720 5720 5721 5721 5721 5722 5723 5723 5723 5722 5722 5722 5722 5723 5724 5724 5725 5726 5726 5726 5726 5727 5727 5728 5728 5728 5728 5728 5728 5729 5729 5730 5730 5731 5732 5732 5732 5732
5716 5716 5717 5717 5717 5717 5718 5718 5718 5719 5720 5720 5720 5719 5719 5719 5720 5720 5721 5721 5722 5722 5722 5722 5723 5724 5724 5724 5725 5725 5726 5726 5726 5726 5726 5726 5727 5728 5728 5729 5729 5729
5713 5714 5714 5714 5714 5714 5715 5715 5715 5716 5716 5716 5716 5717 5717 5717 5717 5718 5718 5718 5719 5719 5719 5719 5720 5720 5720 5721 5721 5722 5723 5723 5723 5723 5723 5723 5723 5724 5725 5725 5726 5726
5710 5711 5711 5711 5711 5711 5711 5711 5712 5712 5713 5713 5713 5714 5714 5715 5715 5715 5715 5716 5717 5717 5718 5718 5716 5715 5716 5717 5717 5718 5718 5719 5719 5719 5719 5720 5720 5720 5720 5721 5721 5722
5707 5707 5708 5708 5708 5708 5709 5709 5709 5709 5710 5710 5710 5710 5711 5712 5712 5711 5711 5712 5712 5713 5714 5713 5711 5711 5712 5712 5713 5713 5714 5714 5714 5715 5715 5716 5716 5716 5716 5716 5717 5717
5702 5703 5704 5704 5704 5705 5705 5706 5706 5705 5705 5706 5706 5707 5708 5708 5708 5707 5707 5707 5707 5707 5707 5707 5707 5708 5709 5709 5709 5709 5710 5710 5711 5711 5712 5712 5712 5713 5713 5713 5713 5713
5697 5698 5699 5700 5700 5700 5701 5701 5700 5699 5700 5701 5701 5702 5703 5703 5703 5703 5702 5702 5702 5702 5702 5702 5702 5703 5704 5706 5706 5706 5706 5706 5707 5707 5708 5708 5709 5709 5709 5709 5709 5709
5691 5692 5694 5694 5695 5696 5697 5697 5696 5695 5696 5696 5696 5697 5697 5698 5698 5698 5698 5697 5697 5697 5697 5697 5698 5698 5699 5700 5701 5702 5702 5702 5703 5703 5704 5704 5705 5705 5705 5705 5705 5705
5685 5686 5688 5689 5689 5691 5692 5691 5691 5692 5692 5691 5691 5692 5693 5693 5693 5693 5693 5693 5692 5692 5692 5692 5692 5693 5694 5694 5695 5696 5697 5698 5699 5699 5699 5700 5700 5700 5700 5700 5700 5699
5678 5680 5681 5682 5683 5684 5685 5685 5686 5687 5687 5686 5686 5687 5687 5688 5688 5688 5688 5688 5688 5687 5687 5687 5687 5688 5689 5690 5691 5691 5692 5693 5694 5694 5694 5694 5694 5694 5694 5694 5694 5693
5671 5673 5674 5675 5676 5677 5678 5679 5679 5680 5680 5681 5681 5681 5682 5682 5683 5683 5683 5683 5683 5683 5683 5683 5683 5683 5684 5685 5686 5686 5687 5687 5687 5688 5688 5688 5688 5688 5688 5687 5687 5687
5664 5666 5667 5668 5669 5669 5670 5671 5672 5672 5673 5674 5675 5675 5676 5676 5676 5677 5677 5678 5678 5678 5678 5678 5678 5679 5679 5680 5680 5680 5681 5681 5681 5681 5681 5681 5681 5681 5681 5681 5681 5681
5656 5657 5659 5660 5661 5662 5663 5663 5664 5665 5666 5667 5668 5669 5669 5669 5670 5670 5670 5671 5672 5672 5672 5673 5673 5673 5673 5674 5674 5674 5674 5674 5674 5674 5675 5675 5675 5675 5675 5675 5675 5674
5648 5649 5651 5652 5654 5655 5656 5657 5658 5658 5659 5660 5661 5662 5662 5663 5663 5663 5663 5664 5665 5665 5666 5666 5666 5666 5667 5667 5667 5667 5667 5667 5668 5668 5668 5669 5669 5669 5669 5669 5669 5668
5642 5643 5644 5645 5646 5648 5649 5650 5651 5652 5653 5654 5655 5655 5655 5656 5656 5656 5656 5657 5657 5657 5657 5658 5659 5659 5660 5660 5660 5661 5661 5661 5662 5662 5662 5663 5663 5663 5663 5663 5663 5662